Regional Weather Roundup
Issued by NWS

Home | Current Version | Previous Version | Graphics & Text | Print | Product List | Glossary On
Versions: 1 2 3 4 5 6 7 8 9 10 11 12 13 14 15 16 17 18 19 20 21 22 23 24 25 26 27 28 29 30 31 32 33 34 35 36 37 38 39 40 41 42 43 44 45 46 47 48 49 50
000
ASUS43 KMPX 250310
RWRMN
WEATHER ROUNDUP FOR MINNESOTA
NATIONAL WEATHER SERVICE TWIN CITIES/CHANHASSEN MN
1000 PM CDT SUN SEP 24 2017


NOTE: "FAIR" INDICATES FEW OR NO CLOUDS BELOW 12,000 FEET WITH NO
SIGNIFICANT WEATHER AND/OR OBSTRUCTIONS TO VISIBILITY. N/A MEANS
CURRENT SKY AND/OR WEATHER CONDITIONS ARE NOT AVAILABLE.

MNZ060>063-068>070-250400-
   Twin Cities Metro

CITY           SKY/WX    TMP DP  RH WIND       PRES   REMARKS
TWIN CITIES    CLOUDY    74  66  76 W7        29.91R
ST PAUL        CLOUDY    74  65  73 CALM      29.91R
CRYSTAL        MOCLDY    70  64  81 W7        29.90R
BLAINE         CLOUDY    72  70  94 CALM      29.90S
LAKEVILLE      CLOUDY    72  64  78 S3        29.94R
EDEN PRAIRIE   CLOUDY    71  65  81 SW3       29.91R
SOUTH ST PAUL  PTCLDY    74  64  68 SW6       29.92R
LAKE ELMO      FAIR      72  64  78 CALM      29.92R
$$
MNZ001>005-007-008-013>017-022>024-027-028-250400-
   Northwest Minnesota

CITY           SKY/WX    TMP DP  RH WIND       PRES   REMARKS
BEMIDJI        CLOUDY    53  52  97 W9        29.93R
HALLOCK        CLOUDY    50  48  93 NW15      29.97R
ROSEAU         CLOUDY    50  45  81 NW9       29.92S HAZE
THIEF RVR FALL CLOUDY    50  49  96 NW13      29.97R
CROOKSTON      CLOUDY    50  48  93 NW12      29.99R
FOSSTON        CLOUDY    48  48 100 NW8       29.97R
DETROIT LAKES  LGT RAIN  50  50 100 NW10      29.99R
MOORHEAD       CLOUDY    52  50  93 NW10      30.01R FOG
PARK RAPIDS    CLOUDY    54  51  90 W12       29.95R
MAHNOMEN       CLOUDY    50  49  97 NW12      29.97R FOG
$$
MNZ006-009>011-018-025>026-250400-
   North Central Minnesota

CITY           SKY/WX    TMP DP  RH WIND       PRES   REMARKS
BAUDETTE       CLOUDY    53  52  96 NW12      29.88R
FLAG ISLAND    CLOUDY    52  52 100 W13       29.88R FOG
INTL FALLS     CLOUDY    60  57  89 NW12      29.84R
WASKISH        CLOUDY    55  54  94 W10       29.90R
BIG FORK       CLOUDY    63  61  94 W3        29.88R
LONGVILLE      CLOUDY    61  57  88 W6        29.91R
GRAND RAPIDS   CLOUDY    66  64  93 W7        29.89R
CRANE LAKE     CLOUDY    64  64 100 CALM      29.84S
ORR            CLOUDY    64  61  88 CALM      29.82S
WALKER         CLOUDY    55  54  94 W7        29.92R
$$
MNZ012-019>021-037-250400-
   Northeast Minnesota

CITY           SKY/WX    TMP DP  RH WIND       PRES   REMARKS
DULUTH         LGT RAIN  67  65  93 SW13      29.88F
ELY            CLOUDY    66  66 100 S5        29.86R
HIBBING        MOCLDY    64  64 100 S3        29.86S
EVELETH        CLOUDY    65  65  98 S5        29.88S
DULUTH HARBOR  DRIZZLE   66  64  94 S9        29.87F
TWO HARBORS    HVY RAIN  70  64  83 W12       29.87R
GRAND MARAIS     N/A     63  63 100 CALM      29.84S
$$
MNZ029>031-032-039>041-046>048-054>057-064-250400-
   West Central Minnesota

CITY           SKY/WX    TMP DP  RH WIND       PRES   REMARKS
FERGUS FALLS   CLOUDY    52  52 100 NW10      30.00R
WHEATON        CLOUDY    54  52  94 NW8       30.02R FOG
MORRIS         MOCLDY    54  54 100 NW13      29.98R
ALEXANDRIA     CLOUDY    54  53  97 NW13      29.98R
ELBOW LAKE     CLOUDY    52  52  99 W13       29.99S
WADENA         CLOUDY    54  54 100 NW7       29.96R FOG
GLENWOOD       CLOUDY    55  54  94 NW15      29.97R
APPLETON       CLOUDY    57  52  82 NW14      29.97F
BENSON         CLOUDY    55  54  94 N13       29.99R
ORTONVILLE     CLOUDY    54  52  94 N14G20    29.99S
MADISON        CLOUDY    59  54  82 NW12      29.99R
WILLMAR        CLOUDY    59  55  88 NW10G16   29.98R
$$
MNZ033>034-036-042>043-049>051-058-059-250400-
   Central Minnesota

CITY           SKY/WX    TMP DP  RH WIND       PRES   REMARKS
ST CLOUD       CLOUDY    66  65  96 W9        29.92R
SAUK CENTRE    CLOUDY    58  55  92 W10G16    29.95R
PAYNESVILLE    CLOUDY    60  59  97 W9        29.97R
AITKIN         PTCLDY    64  63  94 CALM      29.88R
PINE RIVER     CLOUDY    57  54  88 W7        29.96R
BRAINERD       CLOUDY    63  60  90 W12       29.92R
STAPLES        CLOUDY    55  54  94 W12       29.95R
LONG PRAIRIE   CLOUDY    57  54  88 W12       29.95R
LITTLE FALLS   CLOUDY    61  59  94 W9        29.93R
LITCHFIELD     LGT RAIN  64  64 100 W10       29.96R
BUFFALO        PTCLDY    67  64  90 W3        29.92R
MAPLE LAKE     MOCLDY    68  67  94 W5        29.93R
HUTCHINSON     CLOUDY    65  63  93 W7        29.96R
$$
MNZ037-044-045-052-053-250400-
   East Central Minnesota

CITY           SKY/WX    TMP DP  RH WIND       PRES   REMARKS
PRINCETON      CLOUDY    68  66  94 W5        29.90F
MORA           CLOUDY    64  64 100 CALM      29.90F
RUSH CITY      CLOUDY    66  65  95 CALM      29.89S
MOOSE LAKE     CLOUDY    66  63  88 S3        29.87S
HINCKLEY       MOCLDY    66  66 100 W5        29.89S
CLOQUET        CLOUDY    66  63  88 SW3       29.89S
MCGREGOR       CLOUDY    64  63  94 CALM      29.89S
$$
MNZ071>073-080-081-089-090-097-098-250400-
   Southwest Minnesota

CITY           SKY/WX    TMP DP  RH WIND       PRES   REMARKS
MONTEVIDEO     CLOUDY    57  55  94 N8        29.98S
GRANITE FALLS  CLOUDY    59  56  89 NW12      30.00R
CANBY          CLOUDY    57  53  85 W8        30.01R
MARSHALL       CLOUDY    59  55  87 NW10      29.98S
REDWOOD FALLS  CLOUDY    62  58  86 W9        29.98R
OLIVIA         CLOUDY    61  57  88 NW10      29.95S
PIPESTONE      CLOUDY    57  54  88 N10       30.00R
WORTHINGTON    LGT RAIN  61  58  90 NW9       29.99S
JACKSON        MOCLDY    64  61  88 CALM      29.97R
TRACY          RAIN      60  59  97 N5        29.98S
SLAYTON        LGT RAIN  59  53  81 NW6       29.98F
$$
MNZ065>067-074>077-082>085-091>093-250400-
   South Central Minnesota

CITY           SKY/WX    TMP DP  RH WIND       PRES   REMARKS
MANKATO        CLOUDY    68  66  93 W3        29.95R
NEW ULM        CLOUDY    64  61  88 NW8       29.95R
ST JAMES       CLOUDY    66  61  82 W9        29.96R
FAIRMONT       CLOUDY    69  67  93 SW5       29.96R
GLENCOE        CLOUDY    68  68 100 W10G16    29.93
FARIBAULT      CLOUDY    70  66  88 CALM      29.92F
OWATONNA       PTCLDY    70  66  88 CALM      29.92F
WASECA         CLOUDY    68  64  88 SW5       29.96R
ALBERT LEA     CLOUDY    73  66  78 CALM      29.95R
$$
MNZ078>079-086>088-094>096-250400-
   Southeast Minnesota

CITY           SKY/WX    TMP DP  RH WIND       PRES   REMARKS
ROCHESTER      CLEAR     71  63  75 S7        29.94R
RED WING       MOCLDY    79  61  53 W3        29.89R
STANTON        LGT RAIN  71  66  83 W7        29.91F
DODGE CENTER   CLOUDY    73  63  68 W7        29.94R
WINONA         CLEAR     77  61  57 SE5       29.92S
AUSTIN         PTCLDY    73  61  64 S6        29.94R
PRESTON        CLEAR     71  62  71 S3        29.96R
$$
ABBREVIATIONS USED IN REMARKS
   TC - TEMPERATURES IN CELSIUS
  WCI - WIND CHILL INDEX
   HX - HEAT INDEX
  VSB - VISIBILITY
$$



USA.gov is the U.S. government's official web portal to all federal, state and local government web resources and services.